This demonstration page uses our WeatherBlox Daily Observations layout. Learn more.

Left ArrowRight Arrow

44.89941, -97.11507

Hourly Observations for May 23, 2022

Temp ( °F °C ) Dew Point ( °F °C ) Humidity (%) Winds ( mph kmh ) Pressure ( in mb ) Visibility ( mi km ) Precip ( " mm )
12:53 am 00:53 Clear 42 5.6 31 -0.6 65 65 Calm 30.35 1028 10 16 0.00 0.00
1:53 am 01:53 Partly Cloudy 41 5 31 -0.6 67 67 SE 3 6 30.34 1027 10 16 0.00 0.00
2:53 am 02:53 Cloudy 42 5.6 32 0 68 68 SE 7 11 30.33 1027 10 16 0.00 0.00
3:53 am 03:53 Cloudy 44 6.7 33 0.6 65 65 SSE 9 15 30.32 1027 10 16 0.00 0.00
4:53 am 04:53 Cloudy 45 7.2 31 -0.6 58 58 SE 8 13 30.31 1026 10 16 0.00 0.00
5:53 am 05:53 Cloudy 44 6.7 32 0 63 63 SSE 7 11 30.31 1026 10 16 0.00 0.00
6:53 am 06:53 Mostly Cloudy 45 7.2 32 0 61 61 SSE 8 13 30.31 1026 10 16 0.00 0.00
7:53 am 07:53 Cloudy 48 8.9 32 0 54 54 SSE 13 20 30.30 1026 10 16 0.00 0.00
8:53 am 08:53 Mostly Cloudy 51 10.6 33 0.6 50 50 SSE 15 24 30.29 1026 10 16 0.00 0.00
9:53 am 09:53 Sunny 55 12.8 34 1.1 45 45 SE 12 19 30.28 1025 10 16 0.00 0.00
10:53 am 10:53 Sunny 59 15 35 1.7 41 41 SSE 14 22 30.25 1024 10 16 0.00 0.00
11:53 am 11:53 Mostly Sunny 62 16.7 37 2.8 40 40 S 15 24 30.22 1023 10 16 0.00 0.00
12:53 pm 12:53 Partly Cloudy 64 17.8 38 3.3 38 38 SSE 15 24 30.20 1023 10 16 0.00 0.00
1:53 pm 13:53 Mostly Sunny 65 18.3 39 3.9 39 39 S 15 24 30.17 1022 10 16 0.00 0.00
2:53 pm 14:53 Partly Cloudy 67 19.4 38 3.3 35 35 S 13 20 30.15 1021 10 16 0.00 0.00
3:53 pm 15:53 Mostly Cloudy 65 18.3 39 3.9 39 39 S 12 19 30.14 1021 10 16 0.00 0.00
4:53 pm 16:53 Mostly Cloudy 61 16.1 40 4.4 46 46 SSW 12 19 30.14 1021 10 16 0.00 0.00
5:53 pm 17:53 Cloudy with Light Rain 55 12.8 44 6.7 67 67 SSW 7 11 30.18 1022 9 14 0.01 0.25
6:53 pm 18:53 Partly Cloudy 58 14.4 47 8.3 67 67 SW 6 9 30.16 1022 10 16 0.01 0.25
7:53 pm 19:53 Mostly Sunny 56 13.3 44 6.7 65 65 SSW 8 13 30.16 1021 10 16 0.00 0.00
8:53 pm 20:53 Sunny 52 11.1 45 7.2 77 77 SSW 3 6 30.16 1022 10 16 0.00 0.00
9:53 pm 21:53 Clear 50 10 44 6.7 80 80 Calm 30.18 1022 10 16 0.00 0.00
10:53 pm 22:53 Mostly Cloudy 51 10.6 44 6.7 77 77 Calm 30.19 1022 10 16 0.00 0.00
11:53 pm 23:53 Mostly Clear 47 8.3 42 5.6 83 83 SSW 3 6 30.19 1022 10 16 0.00 0.00

Powered by AerisWeather